Beaver Falls, PA

10:19 AM EST on November 17, 2019 (GMT -0500)
Beaver County

Weather History for KBVI - September, 2019

Change the Weather History Date:

Saturday, September 7, 2019

  Actual Average Record
Temperature  
Mean Temperature 66 °F -  
Max Temperature 77 °F 75 °F 87 °F (2002)
Min Temperature 54 °F 58 °F 33 °F (1996)
Growing Degree Days 16 (Base 50)    
Moisture  
Dew Point 56 °F    
Average Humidity 76    
Maximum Humidity 97    
Minimum Humidity 47    
Precipitation  
Precipitation 0.00 in - - ()
Sea Level Pressure  
Sea Level Pressure 29.96 in    
Wind  
Wind Speed 3 mph (WNW)    
Max Wind Speed 12 mph    
Max Gust Speed 17 mph    
Visibility 9 miles    
Events      
Averages and records for this station are not official NWS values.
T = Trace of Precipitation, MM = Missing Value Source: NWS Daily Summary

Daily Weather History Graph

Daily Weather History Graph

Search for Another Location

Airport or City:

Astronomy

Sep. 07, 2019 Rise Set
Actual Time 6:54 AM EDT 7:44 PM EDT
Civil Twilight 6:26 AM EDT 8:12 PM EDT
Nautical Twilight 5:53 AM EDT 8:45 PM EDT
Astronomical Twilight 5:19 AM EDT 9:19 PM EDT
Moon 4:00 PM EDT (9/7) 12:43 AM EDT (9/7)
Length of Visible Light 13h 45m
Length of Day
12h 50m
Waxing Gibbous, 65% of the Moon is Illuminated
Sep 7
Waxing Gibbous
Sep 14
Full
Sep 21
Last Quarter
Sep 28
New
Oct 5
First Quarter

Hourly Weather History & Observations

Time (EDT) Temp. Dew Point Humidity Pressure Visibility Wind Dir Wind Speed Gust Speed Precip Events Conditions
12:15 AM 59.7 °F 56.8 °F 90% 29.91 in 10.0 mi Calm Calm - N/A   Clear
12:16 AM 59.5 °F 56.8 °F 91% 29.91 in 10.0 mi Calm Calm - N/A   Clear
12:35 AM 59.2 °F 56.7 °F 91% 29.90 in 10.0 mi Calm Calm - N/A   Clear
12:36 AM 59.2 °F 56.7 °F 91% 29.90 in 10.0 mi Calm Calm - N/A   Clear
12:55 AM 58.8 °F 56.3 °F 91% 29.91 in 10.0 mi Calm Calm - N/A   Clear
12:56 AM 58.6 °F 56.3 °F 92% 29.91 in 10.0 mi WNW 3.5 mph - N/A   Clear
1:15 AM 59.0 °F 56.5 °F 91% 29.91 in 10.0 mi NW 3.5 mph - N/A   Clear
1:36 AM 58.8 °F 56.3 °F 91% 29.91 in 10.0 mi NW 3.5 mph - N/A   Clear
1:55 AM 58.5 °F 56.1 °F 92% 29.91 in 10.0 mi Calm Calm - N/A   Clear
2:15 AM 58.1 °F 55.8 °F 92% 29.91 in 7.0 mi NW 3.5 mph - N/A   Clear
2:35 AM 57.6 °F 55.4 °F 92% 29.91 in 10.0 mi Calm Calm - N/A   Clear
2:36 AM 57.6 °F 55.4 °F 92% 29.91 in 10.0 mi Calm Calm - N/A   Clear
2:55 AM 57.2 °F 55.0 °F 92% 29.91 in 10.0 mi Calm Calm - N/A   Clear
2:56 AM 57.2 °F 55.0 °F 92% 29.91 in 10.0 mi Calm Calm - N/A   Clear
3:15 AM 56.8 °F 54.9 °F 93% 29.91 in 10.0 mi WNW 3.5 mph - N/A   Clear
3:35 AM 57.2 °F 55.0 °F 92% 29.91 in 10.0 mi WNW 4.6 mph - N/A   Clear
3:55 AM 57.0 °F 55.0 °F 93% 29.91 in 7.0 mi Calm Calm - N/A   Clear
3:56 AM 57.0 °F 55.0 °F 93% 29.91 in 7.0 mi WNW 3.5 mph - N/A   Clear
4:15 AM 56.5 °F 54.5 °F 93% 29.91 in 7.0 mi Calm Calm - N/A   Clear
4:35 AM 55.9 °F 54.0 °F 93% 29.93 in 7.0 mi West 4.6 mph - N/A   Clear
4:36 AM 55.9 °F 54.1 °F 94% 29.93 in 7.0 mi West 4.6 mph - N/A   Clear
4:55 AM 56.3 °F 54.5 °F 94% 29.92 in 4.0 mi West 3.5 mph - N/A   Clear
4:56 AM 56.3 °F 54.5 °F 94% 29.92 in 4.0 mi West 3.5 mph - N/A   Clear
5:15 AM 55.4 °F 53.6 °F 94% 29.92 in 4.0 mi Calm Calm - N/A   Clear
5:16 AM 55.4 °F 53.6 °F 94% 29.92 in 4.0 mi Calm Calm - N/A   Clear
5:35 AM 55.4 °F 53.6 °F 94% 29.93 in 4.0 mi Calm Calm - N/A   Clear
5:55 AM 54.9 °F 53.4 °F 95% 29.93 in 4.0 mi West 3.5 mph - N/A   Clear
5:56 AM 54.9 °F 53.6 °F 96% 29.93 in 4.0 mi West 3.5 mph - N/A   Clear
6:15 AM 54.9 °F 53.6 °F 96% 29.93 in 4.0 mi Calm Calm - N/A   Clear
6:16 AM 54.9 °F 53.6 °F 96% 29.93 in 4.0 mi Calm Calm - N/A   Clear
6:35 AM 54.9 °F 53.6 °F 96% 29.95 in 3.0 mi Calm Calm - N/A   Clear
6:55 AM 55.4 °F 54.0 °F 95% 29.95 in 2.5 mi Calm Calm - N/A   Clear
6:56 AM 55.4 °F 54.0 °F 95% 29.95 in 2.5 mi Calm Calm - N/A   Clear
7:15 AM 55.4 °F 54.1 °F 96% 29.96 in 3.0 mi Calm Calm - N/A   Clear
7:16 AM 55.4 °F 54.1 °F 96% 29.96 in 3.0 mi Calm Calm - N/A   Clear
7:35 AM 56.1 °F 54.9 °F 96% 29.96 in 2.5 mi Calm Calm - N/A   Clear
7:55 AM 57.2 °F 56.1 °F 96% 29.97 in 5.0 mi Calm Calm - N/A   Clear
7:56 AM 57.2 °F 56.1 °F 96% 29.97 in 5.0 mi Calm Calm - N/A   Clear
8:15 AM 58.3 °F 57.4 °F 97% 29.97 in 7.0 mi West 3.5 mph - N/A   Clear
8:35 AM 59.0 °F 57.7 °F 96% 29.98 in 7.0 mi Calm Calm - N/A   Scattered Clouds
8:47 AM 60.8 °F 59.0 °F 94% 29.87 in 7.0 mi Calm Calm - N/A   Scattered Clouds
8:55 AM 61.3 °F 60.1 °F 96% 29.98 in 10.0 mi WNW 3.5 mph - N/A   Scattered Clouds
9:15 AM 63.3 °F 59.4 °F 87% 29.98 in 10.0 mi Calm Calm - N/A   Clear
9:35 AM 65.7 °F 59.9 °F 82% 29.99 in 10.0 mi West 3.5 mph - N/A   Clear
9:55 AM 67.5 °F 59.4 °F 75% 29.99 in 10.0 mi West 5.8 mph - N/A   Mostly Cloudy
10:15 AM 66.0 °F 58.3 °F 76% 29.99 in 10.0 mi West 4.6 mph - N/A   Overcast
10:16 AM 66.0 °F 58.5 °F 77% 29.99 in 10.0 mi West 4.6 mph - N/A   Overcast
10:35 AM 65.7 °F 58.6 °F 78% 29.99 in 10.0 mi WSW 5.8 mph - N/A   Overcast
10:47 AM 66.2 °F 59.0 °F 78% 29.99 in 10.0 mi SW 4.6 mph - N/A   Overcast
10:55 AM 65.8 °F 57.9 °F 76% 29.99 in 10.0 mi SW 5.8 mph - N/A   Overcast
11:15 AM 66.6 °F 58.1 °F 74% 29.99 in 10.0 mi West 8.1 mph - N/A   Overcast
11:16 AM 66.6 °F 57.9 °F 74% 29.99 in 10.0 mi WSW 6.9 mph - N/A   Overcast
11:35 AM 68.2 °F 58.6 °F 71% 29.98 in 10.0 mi West 8.1 mph - N/A   Overcast
11:36 AM 68.4 °F 58.8 °F 71% 29.98 in 10.0 mi WSW 6.9 mph - N/A   Overcast
11:47 AM 69.8 °F 59.0 °F 68% 29.98 in 10.0 mi WSW 4.6 mph - N/A   Overcast
11:55 AM 71.8 °F 60.1 °F 67% 29.98 in 10.0 mi SW 9.2 mph - N/A   Overcast
12:15 PM 68.2 °F 59.0 °F 72% 29.98 in 10.0 mi West 6.9 mph - N/A   Overcast
12:16 PM 68.2 °F 59.0 °F 72% 29.98 in 10.0 mi WSW 6.9 mph - N/A   Overcast
12:35 PM 70.9 °F 60.1 °F 69% 29.98 in 10.0 mi WSW 6.9 mph - N/A   Overcast
12:36 PM 71.2 °F 60.1 °F 68% 29.98 in 10.0 mi WSW 6.9 mph - N/A   Overcast
12:47 PM 71.6 °F 59.0 °F 64% 29.98 in 10.0 mi WSW 6.9 mph - N/A   Overcast
12:55 PM 70.9 °F 59.4 °F 67% 29.98 in 10.0 mi WSW 5.8 mph - N/A   Overcast
1:15 PM 71.8 °F 59.7 °F 66% 29.98 in 10.0 mi SW 8.1 mph - N/A   Mostly Cloudy
1:35 PM 72.3 °F 60.3 °F 66% 29.97 in 10.0 mi West 8.1 mph - N/A   Scattered Clouds
1:36 PM 72.9 °F 60.4 °F 65% 29.97 in 10.0 mi WSW 8.1 mph - N/A   Scattered Clouds
1:55 PM 73.8 °F 58.5 °F 59% 29.97 in 10.0 mi WSW 9.2 mph - N/A   Mostly Cloudy
2:15 PM 71.1 °F 58.1 °F 63% 29.96 in 10.0 mi WNW 4.6 mph - N/A   Overcast
2:35 PM 71.6 °F 56.3 °F 58% 29.96 in 10.0 mi West 8.1 mph - N/A   Mostly Cloudy
2:36 PM 71.6 °F 55.9 °F 58% 29.96 in 10.0 mi West 8.1 mph - N/A   Mostly Cloudy
2:47 PM 75.2 °F 57.2 °F 53% 29.96 in 10.0 mi West 11.5 mph - N/A   Mostly Cloudy
2:55 PM 74.8 °F 56.3 °F 52% 29.96 in 10.0 mi West 9.2 mph - N/A   Overcast
3:15 PM 74.8 °F 55.8 °F 51% 29.95 in 10.0 mi West 6.9 mph - N/A   Mostly Cloudy
3:16 PM 74.8 °F 55.8 °F 51% 29.95 in 10.0 mi West 8.1 mph - N/A   Mostly Cloudy
3:35 PM 77.0 °F 55.6 °F 47% 29.95 in 10.0 mi West 8.1 mph - N/A   Scattered Clouds
3:36 PM 77.2 °F 55.8 °F 47% 29.95 in 10.0 mi West 8.1 mph - N/A   Scattered Clouds
3:47 PM 75.2 °F 53.6 °F 47% 29.95 in 10.0 mi WNW 10.4 mph 17.3 mph N/A   Scattered Clouds
3:55 PM 76.1 °F 55.0 °F 48% 29.95 in 10.0 mi West 10.4 mph 17.3 mph N/A   Scattered Clouds
3:56 PM 76.5 °F 54.9 °F 47% 29.95 in 10.0 mi West 11.5 mph 17.3 mph N/A   Scattered Clouds
4:15 PM 72.5 °F 55.2 °F 54% 29.95 in 10.0 mi NW 5.8 mph - N/A   Scattered Clouds
4:35 PM 74.5 °F 55.6 °F 52% 29.95 in 10.0 mi WNW 8.1 mph - N/A   Scattered Clouds
4:47 PM 75.2 °F 55.4 °F 50% 29.95 in 10.0 mi NW 10.4 mph - N/A   Mostly Cloudy
4:55 PM 72.1 °F 55.2 °F 55% 29.95 in 10.0 mi NW 6.9 mph - N/A   Mostly Cloudy
4:56 PM 72.0 °F 55.2 °F 55% 29.95 in 10.0 mi NW 8.1 mph - N/A   Mostly Cloudy
5:15 PM 74.5 °F 55.0 °F 51% 29.95 in 10.0 mi WNW 4.6 mph - N/A   Scattered Clouds
5:16 PM 74.5 °F 55.2 °F 51% 29.95 in 10.0 mi WNW 5.8 mph - N/A   Scattered Clouds
5:35 PM 73.9 °F 54.5 °F 51% 29.96 in 10.0 mi NW 6.9 mph 16.1 mph N/A   Scattered Clouds
5:36 PM 73.9 °F 54.5 °F 51% 29.96 in 10.0 mi NW 8.1 mph 16.1 mph N/A   Scattered Clouds
5:55 PM 71.8 °F 54.7 °F 55% 29.96 in 10.0 mi WNW 8.1 mph - N/A   Scattered Clouds
6:15 PM 71.1 °F 54.9 °F 56% 29.96 in 10.0 mi NW 6.9 mph - N/A   Scattered Clouds
6:16 PM 71.1 °F 54.9 °F 56% 29.97 in 10.0 mi NW 8.1 mph - N/A   Scattered Clouds
6:35 PM 70.2 °F 54.9 °F 58% 29.98 in 10.0 mi NW 5.8 mph - N/A   Scattered Clouds
6:36 PM 70.2 °F 54.9 °F 58% 29.98 in 10.0 mi NW 5.8 mph - N/A   Scattered Clouds
6:55 PM 70.0 °F 55.4 °F 60% 29.98 in 10.0 mi NW 5.8 mph - N/A   Scattered Clouds
7:15 PM 69.4 °F 55.4 °F 61% 29.99 in 10.0 mi NNW 4.6 mph - N/A   Clear
7:16 PM 69.4 °F 55.4 °F 61% 29.99 in 10.0 mi NNW 3.5 mph - N/A   Clear
7:35 PM 67.5 °F 54.9 °F 64% 29.99 in 10.0 mi NNW 3.5 mph - N/A   Clear
7:55 PM 66.0 °F 54.9 °F 67% 30.00 in 10.0 mi NW 4.6 mph - N/A   Clear
7:56 PM 66.0 °F 54.9 °F 67% 30.00 in 10.0 mi NNW 4.6 mph - N/A   Clear
8:15 PM 65.5 °F 54.3 °F 67% 30.00 in 10.0 mi NNW 4.6 mph - N/A   Clear
8:16 PM 65.3 °F 54.3 °F 68% 30.01 in 10.0 mi NNW 3.5 mph - N/A   Clear
8:35 PM 64.0 °F 54.0 °F 70% 30.01 in 10.0 mi Calm Calm - N/A   Clear
8:55 PM 63.5 °F 54.0 °F 71% 30.02 in 10.0 mi NNW 3.5 mph - N/A   Clear
8:56 PM 63.5 °F 54.0 °F 71% 30.02 in 10.0 mi NNW 3.5 mph - N/A   Clear
9:15 PM 63.0 °F 54.0 °F 72% 30.02 in 10.0 mi NNW 3.5 mph - N/A   Clear
9:35 PM 63.1 °F 53.8 °F 71% 30.03 in 10.0 mi Calm Calm - N/A   Clear
9:36 PM 63.0 °F 53.8 °F 72% 30.03 in 10.0 mi North 3.5 mph - N/A   Clear
9:55 PM 62.1 °F 54.0 °F 75% 30.03 in 10.0 mi Calm Calm - N/A   Clear
9:56 PM 61.9 °F 54.0 °F 75% 30.03 in 10.0 mi Calm Calm - N/A   Clear
10:15 PM 61.7 °F 54.1 °F 76% 30.03 in 10.0 mi Calm Calm - N/A   Clear
10:35 PM 61.7 °F 54.0 °F 76% 30.03 in 10.0 mi NW 3.5 mph - N/A   Clear
10:36 PM 61.7 °F 54.0 °F 76% 30.03 in 10.0 mi NNW 3.5 mph - N/A   Clear
10:55 PM 61.2 °F 54.1 °F 78% 30.03 in 10.0 mi Calm Calm - N/A   Clear
10:56 PM 61.2 °F 54.1 °F 78% 30.03 in 10.0 mi Calm Calm - N/A   Clear
11:15 PM 60.1 °F 54.1 °F 81% 30.04 in 10.0 mi Calm Calm - N/A   Clear
11:35 PM 59.9 °F 54.1 °F 81% 30.03 in 10.0 mi Calm Calm - N/A   Clear
11:36 PM 59.9 °F 54.1 °F 81% 30.03 in 10.0 mi Calm Calm - N/A   Clear
11:55 PM 60.1 °F 54.0 °F 80% 30.03 in 10.0 mi Calm Calm - N/A   Clear
11:56 PM 60.1 °F 54.0 °F 80% 30.03 in 10.0 mi Calm Calm - N/A   Clear